Weather History for KMTV - May, 2014

Change the Weather History Date:

Wednesday, May 28, 2014

  Actual Average (KGSO) Record (KGSO)
Temperature  
Mean Temperature 74 °F 70 °F  
Max Temperature 90 °F 80 °F 98 °F (1916)
Min Temperature 58 °F 60 °F 36 °F (1961)
Degree Days  
Heating Degree Days 0 1  
Month to date heating degree days 64  
Since 1 July heating degree days 3610  
Cooling Degree Days 9 6  
Month to date cooling degree days 102  
Year to date cooling degree days 140  
Growing Degree Days 24 (Base 50)    
Moisture  
Dew Point 63 °F    
Average Humidity 71    
Maximum Humidity 98    
Minimum Humidity 35    
Precipitation  
Precipitation 0.00 in 0.12 in 2.54 in (1973)
Month to date precipitation 3.01  
Year to date precipitation 16.33  
Sea Level Pressure  
Sea Level Pressure 30.03 in    
Wind  
Wind Speed 1 mph (WNW)    
Max Wind Speed 14 mph    
Max Gust Speed 20 mph    
Visibility 9 miles    
Events      
T = Trace of Precipitation, MM = Missing Value Source: NWS Daily Summary

Daily Weather History Graph

Daily Weather History Graph

Search for Another Location

Airport or City:

Trip Planner

Search our weather history database for the weather conditions in past years. The results will help you decide how hot, cold, wet, or windy it might be!

Date:

Astronomy

May. 28, 2014 Rise Set
Actual Time 6:04 AM EDT 8:30 PM EDT
Civil Twilight 5:34 AM EDT 9:00 PM EDT
Nautical Twilight 4:58 AM EDT 9:37 PM EDT
Astronomical Twilight 4:17 AM EDT 10:17 PM EDT
Moon 6:07 AM EDT (5/28) 8:29 PM EDT (5/28)
Length of Visible Light 15h 25m
Length of Day
14h 25m
Waning Crescent, 0% of the Moon is Illuminated
May 28
Waning Crescent
May 28
New
Jun 5
First Quarter
Jun 13
Full
Jun 19
Last Quarter

Hourly Weather History & Observations

Time (EDT) Temp. Heat Index Dew Point Humidity Pressure Visibility Wind Dir Wind Speed Gust Speed Precip Events Conditions
12:15 AM 65.1 °F - 62.8 °F 92% 30.05 in 10.0 mi Calm Calm - N/A   Overcast
12:35 AM 65.5 °F - 63.5 °F 93% 30.05 in 10.0 mi Calm Calm - N/A   Mostly Cloudy
12:55 AM 64.6 °F - 62.8 °F 94% 30.04 in 10.0 mi Calm Calm - N/A   Scattered Clouds
1:15 AM 63.5 °F - 62.2 °F 96% 30.04 in 10.0 mi Calm Calm - N/A   Clear
1:35 AM 63.9 °F - 62.6 °F 96% 30.04 in 10.0 mi Calm Calm - N/A   Clear
1:55 AM 63.0 °F - 61.9 °F 96% 30.03 in 7.0 mi Calm Calm - N/A   Clear
2:15 AM 62.8 °F - 61.9 °F 97% 30.02 in 7.0 mi Calm Calm - N/A   Scattered Clouds
2:35 AM 62.6 °F - 61.7 °F 97% 30.03 in 5.0 mi Calm Calm - N/A   Scattered Clouds
2:55 AM 62.2 °F - 61.5 °F 97% 30.02 in 7.0 mi Calm Calm - N/A   Clear
3:15 AM 61.5 °F - 60.8 °F 97% 30.02 in 5.0 mi Calm Calm - N/A   Scattered Clouds
3:35 AM 61.5 °F - 60.8 °F 97% 30.02 in 5.0 mi Calm Calm - N/A   Scattered Clouds
3:55 AM 61.0 °F - 60.4 °F 98% 30.02 in 5.0 mi Calm Calm - N/A   Scattered Clouds
4:15 AM 61.0 °F - 60.4 °F 98% 30.02 in 5.0 mi Calm Calm - N/A   Scattered Clouds
4:35 AM 59.9 °F - 59.4 °F 98% 30.01 in 4.0 mi Calm Calm - N/A   Clear
5:15 AM 59.5 °F - 59.0 °F 98% 30.01 in 3.0 mi Calm Calm - N/A   Clear
5:35 AM 59.0 °F - 58.5 °F 98% 30.01 in 3.0 mi Calm Calm - N/A   Clear
5:55 AM 58.5 °F - 57.9 °F 98% 30.01 in 2.5 mi Calm Calm - N/A   Clear
6:15 AM 59.0 °F - 58.3 °F 97% 30.01 in 2.5 mi Calm Calm - N/A   Clear
6:35 AM 59.0 °F - 58.3 °F 97% 30.02 in 4.0 mi Calm Calm - N/A   Clear
6:55 AM 59.7 °F - 59.2 °F 98% 30.03 in 5.0 mi Calm Calm - N/A   Clear
7:15 AM 61.5 °F - 61.0 °F 98% 30.03 in 7.0 mi Calm Calm - N/A   Clear
7:35 AM 62.6 °F - 61.7 °F 97% 30.04 in 10.0 mi Calm Calm - N/A   Clear
7:55 AM 64.4 °F - 62.1 °F 92% 30.04 in 10.0 mi Calm Calm - N/A   Clear
8:15 AM 65.7 °F - 63.1 °F 92% 30.05 in 10.0 mi Calm Calm - N/A   Clear
8:35 AM 68.7 °F - 63.7 °F 84% 30.05 in 10.0 mi Calm Calm - N/A   Clear
8:55 AM 71.4 °F - 64.2 °F 78% 30.05 in 10.0 mi Calm Calm - N/A   Clear
9:15 AM 74.3 °F - 64.9 °F 72% 30.05 in 10.0 mi Calm Calm - N/A   Clear
9:55 AM 79.3 °F - 66.4 °F 64% 30.05 in 10.0 mi Calm Calm - N/A   Clear
10:15 AM 81.0 °F 82.9 °F 65.3 °F 59% 30.05 in 10.0 mi NNW 10.4 mph - N/A   Clear
10:35 AM 82.0 °F 83.9 °F 65.7 °F 57% 30.05 in 10.0 mi NNW 13.8 mph 17.3 mph N/A   Clear
10:55 AM 81.9 °F 83.7 °F 65.5 °F 57% 30.06 in 10.0 mi NNW 6.9 mph - N/A   Clear
11:15 AM 83.7 °F 85.5 °F 65.3 °F 54% 30.06 in 10.0 mi NNW 13.8 mph 19.6 mph N/A   Clear
11:35 AM 84.2 °F 86.1 °F 65.3 °F 53% 30.06 in 10.0 mi NNW 9.2 mph - N/A   Clear
11:55 AM 84.6 °F 86.1 °F 64.6 °F 51% 30.06 in 10.0 mi NW 9.2 mph - N/A   Clear
12:15 PM 85.3 °F 86.6 °F 64.0 °F 49% 30.06 in 10.0 mi NNW 10.4 mph - N/A   Clear
12:35 PM 86.0 °F 87.3 °F 64.0 °F 48% 30.06 in 10.0 mi Calm Calm - N/A   Clear
12:55 PM 86.5 °F 87.8 °F 64.0 °F 47% 30.05 in 10.0 mi West 4.6 mph - N/A   Clear
1:15 PM 87.6 °F 88.5 °F 63.3 °F 44% 30.05 in 10.0 mi NE 3.5 mph - N/A   Clear
1:35 PM 88.3 °F 88.6 °F 62.1 °F 41% 30.04 in 10.0 mi West 4.6 mph - N/A   Scattered Clouds
2:15 PM 88.9 °F 89.4 °F 62.4 °F 41% 30.04 in 10.0 mi North 3.5 mph - N/A   Scattered Clouds
2:35 PM 89.6 °F 91.1 °F 64.6 °F 43% 30.03 in 10.0 mi North 4.6 mph - N/A   Scattered Clouds
2:55 PM 88.9 °F 90.0 °F 63.9 °F 43% 30.02 in 10.0 mi Calm Calm - N/A   Scattered Clouds
3:15 PM 90.5 °F 91.4 °F 63.3 °F 40% 30.02 in 10.0 mi SE 4.6 mph - N/A   Scattered Clouds
3:35 PM 88.9 °F 90.0 °F 63.9 °F 43% 30.01 in 10.0 mi Calm Calm - N/A   Clear
3:55 PM 90.3 °F 90.2 °F 60.8 °F 37% 30.00 in 10.0 mi Calm Calm - N/A   Clear
4:15 PM 90.7 °F 91.3 °F 62.6 °F 39% 30.00 in 10.0 mi Calm Calm - N/A   Clear
4:35 PM 89.2 °F 88.4 °F 59.4 °F 36% 29.99 in 10.0 mi SW 3.5 mph - N/A   Scattered Clouds
4:55 PM 89.8 °F 89.1 °F 59.9 °F 36% 29.99 in 10.0 mi SW 4.6 mph - N/A   Clear
5:15 PM 88.9 °F 87.7 °F 57.7 °F 35% 29.99 in 10.0 mi SSW 3.5 mph - N/A   Clear
5:35 PM 88.7 °F 87.5 °F 58.1 °F 35% 29.98 in 10.0 mi SSW 4.6 mph - N/A   Clear
5:55 PM 88.7 °F 88.3 °F 60.3 °F 38% 29.98 in 10.0 mi SW 3.5 mph - N/A   Clear
6:15 PM 87.3 °F 87.0 °F 60.3 °F 40% 29.98 in 10.0 mi SSW 4.6 mph - N/A   Clear
6:35 PM 86.5 °F 87.3 °F 62.8 °F 45% 29.98 in 10.0 mi Calm Calm - N/A   Clear
6:55 PM 85.5 °F 86.1 °F 62.2 °F 46% 29.98 in 10.0 mi WSW 3.5 mph - N/A   Clear
7:15 PM 84.0 °F 84.4 °F 61.2 °F 46% 29.98 in 10.0 mi Calm Calm - N/A   Clear
7:35 PM 80.1 °F 82.0 °F 65.3 °F 61% 29.99 in 10.0 mi Calm Calm - N/A   Clear
7:55 PM 78.3 °F - 63.5 °F 60% 30.00 in 10.0 mi Calm Calm - N/A   Clear
8:15 PM 77.2 °F - 65.5 °F 67% 30.01 in 10.0 mi Calm Calm - N/A   Clear
8:35 PM 74.8 °F - 65.7 °F 73% 30.02 in 10.0 mi Calm Calm - N/A   Scattered Clouds
8:55 PM 74.7 °F - 65.7 °F 73% 30.02 in 10.0 mi Calm Calm - N/A   Mostly Cloudy
9:15 PM 73.2 °F - 66.2 °F 79% 30.02 in 10.0 mi Calm Calm - N/A   Scattered Clouds
9:35 PM 71.2 °F - 66.2 °F 84% 30.03 in 10.0 mi Calm Calm - N/A   Scattered Clouds
9:55 PM 70.7 °F - 66.0 °F 85% 30.04 in 10.0 mi Calm Calm - N/A   Mostly Cloudy
10:15 PM 70.3 °F - 66.0 °F 86% 30.05 in 10.0 mi Calm Calm - N/A   Scattered Clouds
10:35 PM 69.8 °F - 66.0 °F 88% 30.05 in 10.0 mi Calm Calm - N/A   Clear
10:55 PM 69.6 °F - 66.4 °F 89% 30.05 in 10.0 mi Calm Calm - N/A   Clear
11:15 PM 68.4 °F - 66.2 °F 93% 30.05 in 7.0 mi Calm Calm - N/A   Clear
11:55 PM 68.4 °F - 65.3 °F 90% 30.05 in 10.0 mi Calm Calm - N/A   Clear